Theta_e
346 348 348 348 348 348 347 346 346 347 345 343 343 343 343 342 341 337 339 340 339 340 340 340 340 343 343 345 345 344 341 341 340 340 339 339 339 338
347 346 342 343 344 344 345 346 345 345 345 344 344 344 344 343 343 340 339 339 339 340 340 339 337 341 341 341 342 343 344 344 343 343 342 342 341 341
343 342 343 346 347 347 346 345 346 346 346 346 344 344 344 343 344 342 341 341 340 336 337 338 337 338 340 338 336 340 343 343 343 345 344 344 343 342
344 345 347 348 347 346 345 344 342 345 346 343 340 340 341 341 341 342 341 339 338 338 339 338 339 337 339 342 342 342 340 340 342 340 340 341 343 344
342 342 343 343 342 342 340 339 345 345 342 339 340 342 342 342 342 342 341 341 341 341 341 341 339 341 341 341 341 341 342 342 341 341 341 340 341 342
340 341 341 341 341 341 341 340 339 340 340 340 340 340 340 340 340 341 341 340 340 340 340 339 340 340 340 340 340 340 340 341 341 340 339 339 340 339
341 340 340 340 339 338 336 338 339 339 339 339 337 335 333 334 333 334 336 336 339 341 341 340 340 339 339 339 340 340 339 341 340 339 339 337 338 339
337 335 334 335 336 337 341 340 339 338 336 334 334 334 333 333 334 335 335 339 336 338 338 341 339 339 337 337 337 337 338 339 339 340 339 339 338 339
330 329 329 330 334 338 338 337 337 337 335 335 334 332 332 332 332 331 332 335 337 336 338 337 336 335 332 333 332 333 334 337 338 337 338 338 339 341
329 329 327 327 328 335 338 336 337 337 335 335 334 332 332 332 329 330 329 330 335 334 332 330 329 329 328 328 329 331 332 333 333 336 338 338 338 340
332 331 330 330 331 332 334 336 336 335 335 334 333 333 333 330 328 327 327 326 326 329 331 325 327 326 326 326 326 326 327 328 330 333 335 336 330 324
334 334 334 334 332 333 335 336 335 335 334 333 333 334 332 331 330 327 326 324 324 324 324 326 326 326 321 320 321 321 321 321 322 323 324 325 326 324
337 337 337 336 335 334 334 333 334 335 334 334 332 333 332 331 330 329 326 325 324 323 324 325 327 326 323 320 320 321 322 322 323 322 322 321 321 321
338 338 338 338 337 335 334 335 334 333 333 332 331 331 331 330 330 329 326 325 323 323 325 326 328 326 323 319 318 318 319 320 320 319 319 319 320 319
339 338 339 337 336 337 334 334 335 335 333 332 331 330 331 330 330 329 325 325 323 323 323 324 324 323 321 320 319 319 319 319 320 320 320 319 318 318
336 338 339 337 334 335 335 334 334 335 334 333 331 329 330 330 329 328 326 325 324 322 322 321 321 321 321 320 320 320 319 320 320 318 317 316 316 315
338 340 341 336 333 333 333 333 334 333 334 333 332 330 330 329 329 328 328 327 325 323 322 322 320 320 319 319 320 320 320 321 321 319 319 321 322 321
337 339 337 334 334 335 334 334 333 332 334 334 332 331 330 329 327 328 327 327 327 325 323 322 322 322 321 320 321 321 321 321 321 319 321 321 320 320
339 337 339 339 335 336 335 334 332 333 333 333 333 332 331 329 328 328 328 328 328 328 326 324 323 321 321 322 323 323 322 322 320 317 318 319 319 320
335 336 338 338 338 335 333 334 332 331 332 332 331 331 330 329 329 328 328 328 328 327 327 326 324 324 324 323 324 323 323 321 318 318 318 320 321 321
335 335 336 337 337 335 333 333 333 332 331 331 331 331 331 330 329 327 327 327 328 326 326 325 326 324 323 323 324 324 324 322 319 319 320 321 322 321
336 336 334 335 335 336 334 333 333 332 333 331 331 330 331 330 329 327 327 327 328 327 327 325 326 326 325 324 323 320 320 320 319 320 321 322 323 322
337 337 337 337 335 334 332 334 334 332 332 333 332 331 330 329 328 328 327 326 327 326 327 326 326 326 326 325 323 322 322 321 321 321 321 322 323 320
Wind_Speed
16 17 13 15 16 14 16 15 14 16 21 20 18 15 16 15 14 18 17 18 29 29 33 33 22 25 25 27 28 29 29 30 32 33 34 35 36 35
13 12 10 10 11 13 12 11 11 12 16 19 18 17 17 17 19 19 19 18 21 30 28 34 31 29 25 28 27 28 29 30 30 30 30 32 34 35
11 13 13 12 12 14 14 15 14 13 13 15 12 12 12 12 13 14 14 17 18 19 21 24 26 30 25 29 28 29 30 28 30 31 33 34 34 34
11 11 11 11 11 10 11 13 12 9 8 11 12 12 11 10 9 11 12 12 12 15 21 21 22 24 27 26 30 32 34 31 31 31 34 34 36 33
7 7 7 6 6 8 10 10 6 6 8 9 11 10 8 7 7 6 8 11 14 15 15 16 18 20 22 28 28 29 33 34 30 30 32 32 35 32
8 8 7 7 8 8 8 8 8 7 7 7 8 10 10 9 8 8 7 8 9 11 12 10 12 13 14 17 19 22 27 24 26 27 26 26 25 28
9 9 9 9 8 6 6 7 8 8 9 9 10 10 11 12 12 11 11 9 5 3 7 9 10 12 14 16 17 18 19 17 23 24 24 25 27 33
10 9 11 11 11 9 11 13 11 11 12 15 14 15 14 14 13 12 11 12 9 9 10 10 10 9 10 12 14 16 17 18 17 17 18 19 20 25
12 12 12 12 11 11 10 9 12 12 14 15 15 17 16 17 17 13 12 8 5 9 8 9 11 13 15 14 15 16 14 13 15 14 13 15 17 17
14 14 13 12 11 9 7 9 11 10 13 13 16 15 18 17 20 17 14 9 4 6 8 7 11 11 11 12 14 9 8 8 9 11 11 12 13 25
14 15 17 18 17 13 8 8 9 11 13 13 14 14 17 17 19 18 17 13 8 7 9 13 6 7 10 14 16 17 16 15 13 9 4 17 31 36
14 16 18 20 19 17 12 10 10 12 13 13 12 10 12 16 20 24 20 19 18 8 15 5 3 2 10 17 22 26 30 32 35 37 34 30 27 28
11 12 13 14 16 16 15 12 11 10 11 11 9 8 9 14 18 23 19 20 21 19 15 6 3 4 7 15 14 16 17 18 17 19 21 25 27 28
8 8 6 7 7 11 12 11 12 10 9 8 10 11 10 14 17 19 18 20 21 23 16 5 1 1 18 20 17 11 12 13 19 25 25 24 24 22
3 2 8 6 5 2 6 8 8 8 8 8 9 10 12 14 15 17 17 18 19 23 18 15 12 10 18 17 18 18 19 18 19 20 22 23 20 18
1 3 6 6 7 4 3 6 11 7 6 8 10 10 11 13 15 15 17 17 17 21 23 25 21 13 16 18 20 16 16 13 18 20 22 23 20 19
2 2 4 4 6 5 3 6 9 8 2 4 8 8 8 10 11 11 14 15 17 18 19 22 22 21 20 17 17 12 14 16 15 17 18 16 15 16
2 3 1 5 1 2 3 8 11 7 3 1 2 4 6 8 10 9 11 14 13 14 13 14 16 17 16 15 11 10 10 10 12 15 14 14 14 11
4 5 2 2 2 5 3 8 9 4 2 2 2 1 2 3 6 9 8 11 11 11 11 9 7 6 8 8 8 9 8 8 12 15 14 11 9 8
2 4 1 1 3 2 3 6 12 11 5 4 3 2 2 1 4 3 6 8 8 7 7 7 7 4 3 1 2 5 8 10 12 13 10 7 5 5
3 3 1 2 0 2 1 4 8 10 7 2 3 3 1 2 2 2 3 5 6 6 6 5 6 6 7 4 2 4 5 9 11 10 10 7 5 4
6 2 1 4 3 2 3 2 3 4 7 4 2 4 2 1 2 1 1 3 3 2 5 3 5 5 5 5 3 2 6 9 11 12 11 9 6 3
10 6 4 4 5 4 3 3 4 3 5 5 4 3 1 3 4 2 2 2 1 2 2 3 3 3 2 0 1 1 5 7 9 10 10 10 10 9
Wind_Direction
300 293 290 292 302 295 286 295 295 296 304 307 309 305 302 283 278 267 280 272 268 269 259 261 263 274 267 265 260 260 259 256 254 254 253 254 252 251
297 297 309 298 288 295 304 304 304 305 302 308 314 309 298 285 276 269 268 257 269 252 261 260 263 259 273 263 259 258 256 254 256 258 259 260 258 255
293 295 296 295 296 306 311 307 306 305 301 310 321 314 311 299 287 281 273 269 285 286 254 244 257 265 269 266 265 262 256 252 251 253 255 256 258 259
303 301 300 297 302 316 323 323 319 323 322 329 343 337 326 304 283 284 281 275 270 269 269 261 252 265 261 256 253 250 253 251 252 257 255 257 251 250
341 344 342 340 350 346 349 352 10 11 350 342 346 355 2 351 337 311 289 274 279 281 273 262 261 258 254 252 258 257 263 264 254 254 257 260 258 245
357 357 1 354 8 14 10 18 18 13 11 20 21 18 14 5 343 324 319 306 302 283 277 269 262 265 267 266 266 264 264 260 264 253 258 254 259 254
29 28 18 2 355 8 18 32 29 40 38 31 21 8 5 358 353 348 335 328 309 296 299 289 286 286 289 288 288 286 278 266 252 249 253 254 256 248
53 44 42 46 55 66 62 58 55 45 40 32 33 27 25 20 15 3 357 3 359 314 320 317 317 310 314 306 299 289 278 276 269 259 253 249 242 236
51 46 43 47 54 62 68 64 53 47 40 30 24 23 22 22 14 8 5 355 338 336 338 312 316 321 325 321 311 306 295 277 260 251 242 237 228 215
51 53 49 49 52 63 62 57 46 46 36 30 18 29 34 29 21 18 10 1 330 338 353 322 318 331 343 345 349 337 318 295 261 236 224 217 196 205
59 66 64 61 62 62 63 61 52 46 37 30 24 33 26 26 25 21 27 20 4 332 323 335 340 3 25 27 36 29 44 57 68 89 148 195 170 141
80 76 66 61 61 62 69 70 60 54 48 36 31 36 23 29 28 23 25 23 19 2 349 17 305 290 74 89 90 87 91 98 113 113 120 126 137 147
85 69 60 60 54 49 51 56 48 45 38 28 29 40 37 30 26 23 24 18 15 10 7 28 250 198 139 128 112 104 100 100 103 106 111 117 124 129
80 68 49 41 53 52 40 45 44 44 31 41 57 54 45 36 29 25 29 26 22 19 23 60 154 223 148 128 118 95 87 97 112 114 116 120 121 123
52 358 5 7 15 17 35 23 24 28 29 42 51 58 52 35 33 30 33 30 33 37 51 76 80 123 144 128 118 118 118 117 113 118 119 116 116 118
1 4 9 2 359 3 59 21 8 7 20 43 43 46 44 38 38 43 40 37 45 54 65 71 75 96 119 118 122 121 121 121 124 127 124 119 120 122
228 320 342 360 19 55 56 10 6 1 347 69 49 46 41 35 39 44 37 39 51 63 73 85 91 101 105 111 119 116 129 128 128 137 134 130 130 130
354 355 6 17 358 353 21 11 359 22 44 18 68 37 33 28 35 47 42 38 50 63 75 83 100 108 112 115 111 123 130 132 136 145 144 137 135 140
288 285 259 332 317 325 359 9 17 347 343 26 75 52 27 22 25 29 34 34 41 56 70 82 84 94 110 118 121 134 149 144 150 153 153 155 158 157
305 337 129 186 263 345 31 26 38 33 76 70 20 104 81 35 2 20 32 26 28 44 57 76 72 73 64 148 114 156 155 158 158 164 165 172 185 186
271 4 76 158 318 22 54 30 29 38 31 44 26 1 72 280 319 46 27 6 18 45 54 79 106 99 85 76 159 184 174 172 176 180 180 185 207 220
248 327 254 43 346 350 9 332 332 14 16 35 38 31 347 262 218 235 335 352 13 83 45 68 121 107 88 69 69 160 175 182 188 197 207 204 203 206
232 250 277 37 21 353 10 321 346 329 325 339 334 281 334 324 234 235 264 270 345 320 321 360 211 176 156 291 353 224 210 211 214 223 230 227 219 206